Hourly Data Report for October 23, 2021

SAINT JOHN A
NEW BRUNSWICK
Current Station Operator: NAVCAN

45°18'58.000" N
65°53'24.000" W
108.80 m
8104901
71609
YSJ

Download Data

Hourly Data (October 2021)
Hourly Data Report for October 23, 2021
TIME
LST
Temp Definition
°C
Dew Point Definition
°C
Rel Hum Definition
%
Precip. Amount Definition
mm

Wind Dir Definition
10's deg

Wind Spd Definition
km/h
Visibility Definition
km
Stn Press Definition
kPa
Hmdx Definition


Wind Chill Definition


Weather Definition


00:00 12.8 12.6 99 LegendMM 21 7 0.4 99.84     Fog
01:00 12.8 12.6 99 LegendMM 36 3 0.4 99.82     Fog
02:00 12.8 12.6 99 LegendMM 36 2 0.4 99.80     Fog
03:00 12.8 12.6 99 LegendMM 36 2 0.4 99.86     Fog
04:00 12.5 12.4 99 LegendMM 36 1 0.4 99.88     Fog
05:00 11.7 11.6 99 LegendMM 36 5 12.9 99.88     Cloudy
06:00 10.4 10.2 99 LegendMM 34 10 16.1 99.86     LegendNANA
07:00 10.2 9.4 95 LegendMM 35 6 19.3 99.93     LegendNANA
08:00 10.1 8.7 91 LegendMM 3 8 19.3 99.96     Cloudy
09:00 10.6 9.3 92 LegendMM 36 7 19.3 99.98     LegendNANA
10:00 11.4 9.8 90 LegendMM 35 8 24.1 99.94     LegendNANA
11:00 12.6 10.5 87 LegendMM 2 5 19.3 99.91     Cloudy
12:00 13.3 10.6 83 LegendMM 34 5 24.1 99.90     LegendNANA
13:00 14.1 10.6 79 LegendMM 32 4 24.1 99.83     LegendNANA
14:00 14.8 11.4 80 LegendMM 10 3 24.1 99.76     Cloudy
15:00 15.0 11.4 79 LegendMM 32 5 24.1 99.73     LegendNANA
16:00 13.9 10.7 81 LegendMM 35 11 24.1 99.69     LegendNANA
17:00 12.9 10.4 85 LegendMM 35 9 24.1 99.69     Cloudy
18:00 12.3 10.3 87 LegendMM 35 12 24.1 99.65     LegendNANA
19:00 11.7 10.0 89 LegendMM 36 11 24.1 99.60     LegendNANA
20:00 11.2 10.4 94 LegendMM 34 11 24.1 99.54     Cloudy
21:00 11.0 10.2 95 LegendMM 35 15 24.1 99.54     LegendNANA
22:00 10.9 10.1 95 LegendMM 34 14 24.1 99.53     LegendNANA
23:00 9.8 9.0 95 LegendMM 32 19 4.8 99.48     Rain, Fog

Notes on Data Quality.

Legend

  • E = Estimated
  • M = Missing
  • NA = Not Available*
  • [empty] = Indicates an unobserved value
Date modified: